SCP
0 0 0 0 0 0 0 0 0 0 0 0 0 0 0 0 1 1 1 1 1 2 2 2 1 1 1 1 1 2 3 3 4 4 4 3 2 2 1 1 1 1 1 1
0 0 0 0 0 0 0 0 0 0 0 0 0 0 0 0 1 1 1 2 2 2 2 2 2 2 2 2 2 2 3 4 4 4 4 3 2 2 1 1 1 1 0 0
0 0 0 0 0 0 0 0 0 0 0 0 0 0 0 1 1 1 1 2 2 2 2 2 3 3 3 3 3 3 4 4 4 4 4 3 2 2 1 1 1 0 0 0
0 0 0 0 0 0 0 0 0 0 0 0 0 0 0 1 1 1 1 2 2 2 2 2 3 3 3 3 3 4 4 4 5 4 4 3 2 2 1 1 0 0 0 0
0 0 0 0 0 0 0 0 0 0 0 0 0 0 0 0 1 1 1 1 1 2 2 2 2 2 2 2 3 3 4 4 4 4 3 3 2 1 1 0 0 0 0 0
0 0 0 0 0 0 0 0 0 0 0 0 0 0 0 0 1 1 1 1 1 1 1 1 1 1 1 1 2 2 2 2 2 2 2 2 1 1 0 0 0 0 0 0
0 0 0 0 0 0 0 0 0 0 0 0 0 0 0 0 0 1 1 1 1 0 0 0 0 0 0 0 1 1 1 1 1 1 1 1 1 0 0 0 0 0 0 0
0 0 0 0 0 0 0 0 0 0 0 0 0 0 0 0 0 0 0 0 0 0 0 0 0 0 0 0 0 0 0 0 0 0 0 0 0 0 0 0 0 0 0 0
0 0 0 0 0 0 0 0 0 0 0 0 0 0 0 0 0 0 0 0 0 0 0 0 0 0 0 0 0 0 0 0 0 0 0 0 0 0 0 0 0 0 0 0
0 0 0 0 0 0 0 0 0 0 0 0 0 0 0 0 0 0 0 0 0 0 0 0 0 0 0 0 0 0 0 0 0 0 0 0 0 0 0 0 0 0 0 0
0 0 0 0 0 0 0 0 0 0 0 0 0 0 0 0 0 0 0 0 0 0 0 0 0 0 0 0 0 0 0 0 0 0 0 0 0 0 0 0 0 0 0 0
0 0 0 0 0 0 0 0 0 0 0 0 0 0 0 0 0 0 0 0 0 0 0 0 0 0 0 0 0 0 0 0 0 0 0 0 0 0 0 0 0 0 0 0
0 0 0 0 0 0 0 0 0 0 0 0 0 0 0 0 0 0 0 0 0 0 0 0 0 0 0 0 0 0 0 0 0 0 0 0 0 0 0 0 0 0 0 0
0 0 0 0 0 0 0 0 0 0 0 0 0 0 0 0 0 0 0 0 0 0 0 0 0 0 0 0 0 0 0 0 0 0 0 0 0 0 0 0 0 0 0 0
0 0 0 0 0 0 0 0 0 0 0 0 0 0 0 0 0 0 0 0 0 0 0 0 0 0 0 0 0 0 0 0 0 0 0 0 0 0 0 0 0 0 0 0
0 0 0 0 0 0 0 0 0 0 0 0 0 0 0 0 0 0 0 0 0 0 0 0 0 0 0 0 0 0 0 0 0 0 0 0 0 0 0 0 0 0 0 0
0 0 0 0 0 0 0 0 0 0 0 0 0 0 0 0 0 0 0 0 0 0 0 0 0 0 0 0 0 0 0 0 0 0 0 0 0 0 0 0 0 0 0 0
0 0 0 0 0 0 0 0 0 0 0 0 0 0 0 0 0 0 0 0 0 0 0 0 0 0 0 0 0 0 0 0 0 0 0 0 0 0 0 0 0 0 0 0
0 0 0 0 0 0 0 0 0 0 0 0 0 0 0 0 0 0 0 0 0 0 0 0 0 0 0 0 0 0 0 0 0 0 0 0 0 0 0 0 0 0 0 0
0 0 0 0 0 0 0 0 0 0 0 0 0 0 0 0 0 0 0 0 0 0 0 0 0 0 0 0 0 0 0 0 0 0 0 0 0 0 0 0 0 0 0 0
0 0 0 0 0 0 0 0 0 0 0 0 0 0 0 0 0 0 0 0 0 0 0 0 0 0 0 0 0 0 0 0 0 0 0 0 0 0 0 0 0 0 0 0
0 0 0 0 0 0 0 0 0 0 0 0 0 0 0 0 0 0 0 0 0 0 0 0 0 0 0 0 0 0 0 0 0 0 0 0 0 0 0 0 0 0 0 0
0 0 0 0 0 0 0 0 0 0 0 0 0 0 0 0 0 0 0 0 0 0 0 0 0 0 0 0 0 0 0 0 0 0 0 0 0 0 0 0 0 0 0 0
0 0 0 0 0 0 0 0 0 0 0 0 0 0 0 0 0 0 0 0 0 0 0 0 0 0 0 0 0 0 0 0 0 0 0 0 0 0 0 0 0 0 0 0
0 0 0 0 0 0 0 0 0 0 0 0 0 0 0 0 0 0 0 0 0 0 0 0 0 0 0 0 0 0 0 0 0 0 0 0 0 0 0 0 0 0 0 0
0 0 0 0 0 0 0 0 0 0 0 0 0 0 0 0 0 0 0 0 0 0 0 0 0 0 0 0 0 0 0 0 0 0 0 0 0 0 0 0 0 0 0 0
Wind_Speed
1 3 3 6 6 7 4 5 8 10 9 6 12 13 9 4 1 3 6 8 9 6 4 4 4 6 7 6 6 8 9 10 10 8 7 6 5 5 5 4 5 5 6 6
3 3 8 6 5 5 6 8 10 11 9 5 8 9 4 1 3 6 8 9 9 8 6 5 4 5 6 6 6 6 8 10 10 7 6 5 6 5 5 5 6 6 6 6
6 7 6 6 7 7 9 7 8 8 9 5 3 1 0 4 10 12 11 10 9 9 8 6 6 6 5 4 4 6 6 7 8 8 7 8 6 5 4 5 5 5 7 7
6 8 6 7 9 8 8 7 6 4 3 4 3 1 3 4 8 10 10 10 9 9 9 8 8 8 7 5 4 5 5 6 6 8 9 10 7 6 5 5 6 7 8 8
7 6 7 9 11 7 8 6 2 2 0 2 3 3 5 3 6 7 9 10 10 10 10 10 10 10 10 10 8 7 8 8 6 6 7 8 7 7 7 7 9 8 7 8
9 6 7 9 9 7 5 2 5 5 5 2 3 2 4 2 4 9 9 10 10 10 10 11 11 11 12 12 11 11 12 11 9 9 8 9 11 11 10 9 8 7 6 6
7 7 6 4 3 2 3 6 4 5 4 4 4 3 1 6 9 12 12 11 10 10 10 11 12 13 13 13 13 12 14 13 12 12 11 10 11 11 11 9 8 7 6 5
2 6 4 3 5 4 3 8 7 4 2 4 4 3 5 10 13 14 13 11 11 10 10 11 11 11 12 13 13 14 15 14 13 14 13 12 11 9 8 9 8 8 6 5
2 5 4 3 3 6 3 3 8 6 1 1 2 4 6 9 11 12 12 11 11 10 10 11 11 12 12 13 13 14 15 15 14 14 14 14 13 12 11 10 9 7 6 6
1 3 5 2 4 2 4 3 5 5 3 3 2 3 2 8 10 10 10 10 10 10 10 11 11 12 12 13 13 14 15 15 14 13 13 12 12 11 10 9 9 8 7 6
2 1 6 5 3 0 3 3 3 3 4 5 2 1 5 7 11 12 10 10 10 10 10 10 11 11 12 12 13 13 14 14 13 13 12 12 11 10 9 8 7 6 6 6
3 4 2 2 2 2 5 2 4 4 2 2 3 3 7 10 12 13 12 11 10 10 10 11 11 12 12 12 12 12 12 12 12 11 11 11 10 10 9 8 7 7 7 6
3 6 4 7 8 8 6 4 2 4 4 2 3 4 6 10 11 11 12 12 11 11 11 11 11 11 12 11 11 11 11 10 10 10 11 10 10 9 9 8 7 7 8 8
5 5 4 3 3 2 4 6 4 4 3 2 3 7 7 9 10 10 10 10 10 10 10 11 11 10 10 9 9 9 9 9 9 10 10 10 8 8 8 8 8 7 8 8
6 4 2 0 2 6 8 9 9 6 3 4 5 7 7 8 9 10 10 10 10 10 10 10 10 9 9 8 8 9 8 8 9 9 9 8 7 7 7 8 7 7 7 8
5 4 3 3 6 10 13 13 10 9 7 8 9 7 7 9 9 10 10 10 10 9 10 10 9 9 9 8 8 8 8 7 7 8 7 7 7 7 7 6 6 6 6 5
3 4 3 2 0 6 9 8 8 7 6 3 4 6 10 9 8 8 8 9 9 9 9 9 8 8 8 7 7 7 7 6 7 7 6 6 6 6 5 5 5 5 4 4
4 3 3 2 6 6 1 1 9 10 8 7 9 10 9 10 8 7 6 8 9 9 8 8 7 7 6 6 6 6 6 6 6 5 5 5 5 5 4 4 4 3 2 2
4 5 4 4 4 4 1 0 2 5 5 4 9 11 11 11 9 7 6 7 8 8 8 7 6 6 6 5 5 5 5 5 5 4 4 3 4 4 3 3 2 1 1 1
6 6 5 4 4 2 2 4 3 8 4 3 7 11 10 7 5 4 5 8 9 8 7 6 6 6 5 4 5 5 4 4 3 3 3 3 3 3 2 1 0 1 1 1
5 5 5 4 3 1 3 5 3 2 4 5 6 7 6 2 4 8 9 8 8 8 7 6 6 5 4 4 5 5 4 3 2 3 3 3 2 2 2 1 0 1 2 2
3 3 3 3 3 2 5 4 3 4 4 6 6 5 8 10 11 10 9 8 8 7 6 6 5 4 3 4 4 4 2 1 2 3 2 1 1 1 1 0 1 2 2 3
3 5 4 4 4 3 2 4 4 6 7 5 6 8 12 12 11 9 8 7 6 6 5 5 5 4 3 3 4 3 1 2 2 1 1 0 1 1 1 0 1 1 2 2
1 4 6 5 3 3 5 6 6 6 7 8 10 11 11 11 10 9 7 6 5 5 5 4 5 4 2 2 3 2 2 2 2 1 1 1 1 1 2 1 0 1 1 1
1 4 5 4 4 5 4 5 8 9 11 11 10 9 9 10 10 8 7 6 5 4 4 4 4 4 3 2 2 2 2 2 2 1 2 2 1 1 1 1 0 2 2 3
1 5 7 6 7 6 5 5 10 11 10 11 12 9 8 9 9 7 6 5 4 5 4 4 4 4 3 3 2 2 2 3 3 2 2 2 1 1 1 1 1 2 1 2
Wind_Direction
228 107 220 228 202 210 251 280 282 275 270 241 235 239 249 246 162 164 155 145 138 145 164 157 167 166 165 173 184 182 171 171 164 158 153 141 130 119 107 102 103 104 104 106
23 254 236 242 261 264 271 280 282 290 290 270 228 228 236 95 104 127 129 121 117 111 97 91 96 116 144 170 184 177 177 173 172 162 149 132 124 114 104 95 85 91 98 96
204 240 236 243 263 265 267 243 254 274 312 344 118 283 217 67 83 82 74 82 83 94 96 83 76 78 95 116 155 170 172 169 158 137 120 112 104 101 95 91 84 74 87 89
237 246 245 242 247 236 259 245 243 275 348 317 70 163 290 107 83 79 73 69 67 65 68 68 62 62 60 53 73 108 132 133 131 132 139 142 141 135 120 109 98 81 73 78
240 227 221 236 239 228 238 249 246 269 161 352 17 109 283 98 101 96 83 70 60 54 55 55 51 52 50 46 56 70 84 84 89 103 122 123 116 112 109 104 97 84 72 70
247 247 214 223 238 229 235 13 19 45 68 8 265 133 283 342 142 121 96 75 61 54 52 51 48 48 50 51 54 61 72 69 70 78 87 105 113 115 112 104 98 85 76 68
287 269 244 224 245 295 97 82 32 9 23 260 268 123 83 39 84 108 101 82 65 55 51 49 47 47 48 50 53 60 68 66 66 74 76 84 95 99 101 102 98 94 83 76
266 290 250 202 188 190 167 134 150 174 207 289 345 103 93 85 86 90 89 85 76 66 59 56 54 54 55 56 57 62 67 67 67 71 73 72 77 82 84 86 91 88 85 80
238 269 278 237 190 150 151 172 167 138 187 297 297 112 114 110 101 98 94 88 83 76 70 67 63 61 61 61 60 64 69 68 68 71 75 73 73 79 84 85 85 86 88 89
183 297 306 292 50 43 143 145 88 113 160 240 264 160 193 161 134 115 104 98 92 85 79 75 72 70 68 67 67 67 70 71 70 72 75 80 79 81 82 83 84 85 83 84
63 67 343 33 54 210 62 56 95 130 158 165 223 326 335 155 137 124 111 105 100 94 87 84 82 80 77 74 72 73 73 75 74 74 77 79 77 77 79 80 80 80 79 77
15 100 27 342 322 65 104 120 125 137 247 157 142 54 30 100 109 114 112 106 98 94 90 86 84 83 79 77 76 75 76 77 77 78 79 78 77 76 76 74 70 70 69 66
50 77 45 359 355 13 35 20 73 125 110 101 119 108 77 99 104 108 115 115 110 103 99 94 88 85 84 83 83 82 81 80 79 79 79 77 74 72 70 67 64 64 65 65
85 72 114 157 245 325 20 25 40 87 106 114 124 133 132 119 118 113 110 112 113 108 106 102 97 92 91 88 86 85 82 82 83 81 80 77 73 71 68 66 64 64 70 74
75 71 40 122 87 69 47 35 42 56 89 120 122 121 135 128 124 121 119 118 113 111 107 103 101 98 94 90 86 84 81 78 81 81 78 77 76 75 71 68 67 66 71 80
63 65 35 32 88 76 51 36 46 47 57 99 105 91 106 113 114 119 123 123 118 114 109 106 103 100 95 92 90 87 83 80 81 81 76 70 70 72 71 70 67 68 70 75
50 73 63 335 299 75 39 14 56 59 36 74 89 113 123 118 118 123 127 123 118 113 108 103 98 95 92 88 90 91 88 80 77 76 76 74 77 77 72 75 69 66 68 75
107 84 94 40 50 72 156 49 87 83 58 75 104 118 120 117 102 89 101 115 114 110 106 103 101 98 93 91 89 88 85 85 84 82 82 80 82 80 76 74 71 65 65 74
113 110 81 80 81 107 142 334 144 113 81 84 117 119 118 116 96 73 75 97 107 110 111 107 106 103 98 97 97 92 87 86 87 88 94 94 94 94 83 75 62 38 38 352
52 72 85 83 97 120 304 321 131 110 112 148 137 141 145 139 122 131 116 108 106 105 105 104 101 98 98 98 98 94 91 90 95 104 105 102 108 112 111 116 337 307 284 282
28 34 58 80 96 104 302 321 89 115 186 161 149 152 157 135 129 127 120 110 107 107 105 102 100 100 106 106 98 95 91 96 116 117 106 100 111 137 155 174 287 323 347 351
107 85 59 81 92 256 308 29 103 164 126 124 125 123 116 111 111 115 116 115 113 110 107 106 103 103 108 111 106 105 120 151 126 111 102 104 120 198 153 80 329 356 19 24
103 158 147 138 181 229 16 93 115 119 113 113 116 122 124 122 122 119 117 117 114 112 110 109 113 108 101 112 121 126 176 170 143 127 140 255 292 294 247 241 341 31 49 59
56 108 95 84 90 94 84 88 90 102 112 117 123 125 124 123 124 121 119 116 116 116 118 117 112 108 112 130 135 156 169 152 144 178 255 271 276 294 310 326 128 129 116 98
169 96 94 101 130 95 83 111 118 109 109 113 117 119 123 124 125 124 122 122 123 121 123 122 124 130 145 146 152 185 184 151 159 246 277 286 266 269 304 338 192 176 201 183
291 143 144 180 186 150 158 143 127 122 123 126 124 116 118 123 125 122 122 127 126 123 121 123 133 147 160 161 181 213 202 173 175 226 270 273 247 237 186 151 17 353 214 182